Showing default

DUTHSAT-2, 64530

Orbit data source: Space-Track

DUTHSAT-2, 64530 is a payload satellite owned by DUTH (GR) in SSO that was launched on Mon, 23 Jun 2025 UTC via an FALCON 9 launch vehicle from the Air Force Western Test Range (AFWTR). Payload-class satellites include a variety of spacecraft equipped with specific instruments for various scientific and technological missions. These include communications satellites like Starlink; space stations such as the ISS; scientific satellites like the Hubble; Earth observation satellites from companies like Planet Labs, Umbra, and HawkEye 360; GPS; miniature CubeSats for education and research; and military/defense satellites.

Loading next visibility...
Identifier
64530, 2025-135C
Orbit
SSO
Country
Flag of GRGR / GREC
Related business
Manufacturer
DUTH
Mission
Operational Amateur Science
Bus & Motor
CUBESAT 6U, Unknown motor
Mass
10 kg wet, 10 kg dry
Launch date (UTC)
2025-06-23 (1 year ago)
Launch vehicle
FALCON 9
Launch site
Air Force Western Test Range (AFWTR)
Object type
Payload
Rocket body
Debris
Shape & HBR
Box, 0.1 m
Radar Cross Section
0.080 m², Medium (>0.1 m² and < 1m²)

Expand to show TLE details & history
Last TLE update: 15 hours ago

TLE from 15 hours ago
0 DUTHSAT-2
1 64530U 25135C   26171.27522834  .00011152  00000-0  42349-3 0  9999
2 64530  97.4624 287.1839 0005462 166.3831 193.7556 15.26982038 55409
Epoch: 2026-06-20T06:36Z
TLE epoch observation values (Epoch: 2026-06-20T06:36:19.728Z)
Latitude
-0.00004°
Longitude
-80.39048°
Altitude
491.58 km
Speed
7.617 km/s
True Right ascension
19h 08m 44s
True Declination
0° 00' 00"
Sunlit
Object was in full shadow at epoch
Visualization orbit readout
Latitude
Unknown
Longitude
Unknown
Altitude
Unknown
Speed
Unknown
Apparent Right ascension
Unknown
Apparent Declination
Unknown
Sunlit
N/A
Visualization observer readout
Local Sidereal Time
08:42:04
Azimuth
Unknown
Elevation
Unknown
Doppler factor
Unknown
Orbital elements
Apogee altitude
485.546 km
Perigee altitude
478.052 km
Semi-major axis
6,859.936 km
Eccentricity
0.00055
Inclination
97.4624°
RAAN
287.1839°
Arg. of periapsis
166.3831°
True anomaly
193.74073°
Mean anomaly
193.7556°
Eccentric anomaly
193.74816°
Mean motion
3.82 °/min
Orbital period
94.24 mins
BSTAR
0.00042349
Loading maneuver chart data...
Computing Atmospheric mass density...
Loading historical data...
Loading historical data...
Loading historical data...
Loading historical data...
Loading historical data...
Loading historical data...
Loading historical data...

Documentation

Showing up to 5 results
|